Flag for Turkey Weather past 2 weeks in Mersin, Turkey

Now
55 °F

Fog.


Feels Like: 55 °F
Forecast: 56 / 66 °F
Wind: 1 mph from North

Location: Adana / Sakirpasa

Current Time: Feb 27, 2015 at 8:58:02 AM

Latest Report: Feb 27, 2015 at 8:20 AM


Visibility: 3 mi

Pressure: 30.09 "Hg

Humidity: 72%

Dew point: 46 °F

Location of MersinLocation

Historic Weather in Mersin — Graph

°F

Mersin temperature yesterday

Maximum temperature yesterday: 70 °F (at 3:20 PM)
Minimum temperature yesterday: 41 °F (at 3:50 AM)
Average temperature yesterday: 56 °F

Past Weeks' High & Low Weather Summary

 TemperatureHumidityPressure
High70 °F (Feb 26, 3:20 PM)93% (Feb 15, 6:20 AM)30.27 "Hg (Feb 15, 6:20 AM)
Low37 °F (Feb 22, 3:20 AM)17% (Feb 21, 1:20 PM)29.59 "Hg (Feb 20, 11:50 AM)
Average50 °F65%29.98 "Hg
* Reported Feb 12 7:20 AM — Feb 27 7:50 AM, Mersin, Weather by CustomWeather, © 2015

Note: Actual official high and low records may vary slightly from our data, if they occured in-between our weather recording intervals... More about our weather records

Advertising

Mersin weather history for previous 24 hours

 ConditionsComfort  
Time TempWeatherWind HumidityBarometerVisibility
7:50 AM
Fri, Feb 27
54 °FFog.1 mph77%30.09 "Hg3 mi
7:20 AM52 °FBroken clouds.3 mph72%30.09 "Hg3 mi
6:50 AM50 °FFog.5 mph76%30.09 "Hg3 mi
6:20 AM48 °FFog.5 mph76%30.09 "Hg3 mi
5:50 AM48 °FFog.3 mph76%30.09 "Hg3 mi
5:20 AM50 °FFog.5 mph76%30.09 "Hg3 mi
4:50 AM50 °FFog.3 mph71%30.09 "Hg3 mi
4:20 AM50 °FFog.2 mph76%30.12 "Hg3 mi
3:50 AM48 °FFog.5 mph82%30.12 "Hg3 mi
3:20 AM48 °FFog.3 mph82%30.12 "Hg3 mi
2:50 AM46 °FFog.3 mph87%30.12 "Hg3 mi
2:20 AM46 °FFog.No wind87%30.12 "Hg3 mi
1:50 AM46 °FFog.No wind87%30.15 "Hg3 mi
1:20 AM48 °FFog.No wind82%30.15 "Hg3 mi
12:50 AM48 °FFog.2 mph82%30.15 "Hg3 mi
12:20 AM52 °FFog.No wind77%30.18 "Hg3 mi
11:50 PM
Thu, Feb 26
50 °FFog.7 mph82%30.18 "Hg3 mi
10:50 PM52 °FFog.7 mph77%30.18 "Hg3 mi
10:20 PM52 °FFog.3 mph77%30.18 "Hg3 mi
9:50 PM52 °FFog.5 mph82%30.21 "Hg3 mi
9:20 PM54 °FFog.No wind82%30.21 "Hg3 mi
8:50 PM54 °FFog.2 mph82%30.21 "Hg3 mi
8:20 PM54 °FFog.No wind77%30.18 "Hg3 mi
7:50 PM55 °FFog.3 mph77%30.18 "Hg3 mi
7:20 PM54 °FFog.5 mph82%30.18 "Hg3 mi
6:50 PM59 °FSnow. Passing clouds.No wind59%30.18 "Hg3 mi
6:20 PM59 °FPassing clouds.2 mph63%30.18 "Hg3 mi
5:50 PM61 °FPassing clouds.2 mph59%30.18 "HgN/A
5:20 PM64 °FPartly sunny.2 mph49%30.18 "HgN/A
4:50 PM66 °FPartly sunny.3 mph43%30.18 "HgN/A
4:20 PM68 °FScattered clouds.3 mph38%30.18 "HgN/A
3:50 PM68 °FScattered clouds.2 mph38%30.18 "HgN/A
3:20 PM70 °FScattered clouds.2 mph33%30.18 "HgN/A
2:50 PM68 °FScattered clouds.5 mph35%30.18 "HgN/A
2:20 PM68 °FScattered clouds.2 mph35%30.18 "HgN/A
1:50 PM68 °FScattered clouds.3 mph35%30.21 "HgN/A
1:20 PM68 °FScattered clouds.2 mph38%30.21 "HgN/A
12:50 PM66 °FPassing clouds.5 mph37%30.21 "HgN/A
12:20 PM66 °FPassing clouds.3 mph40%30.21 "HgN/A
11:50 AM64 °FPassing clouds.3 mph43%30.24 "HgN/A
11:20 AM64 °FPassing clouds.7 mph43%30.24 "HgN/A
10:50 AM63 °FPassing clouds.7 mph45%30.27 "HgN/A
10:20 AM61 °FPassing clouds.8 mph45%30.27 "HgN/A
9:50 AM61 °FPassing clouds.8 mph45%30.27 "HgN/A
9:20 AM59 °FPassing clouds.7 mph51%30.27 "HgN/A
8:50 AM57 °FPassing clouds.6 mph55%30.27 "HgN/A
Weather by CustomWeather, © 2015

See weather overviewHow to use our weather pages